Location: ??????
(41.3164°N, 22.6615°E)
Time: 19:21:00
(UTC+00:00)

Cosmos 489 Rocket - Visible Passes

Search period start: 25 May 2022 00:00
Search period end: 04 June 2022 00:00
Orbit: 953 x 982 km, 74.0° (Epoch: 25 May)

Date Brightness Start Highest point End Pass type
(mag) Time Alt. Az. Time Alt. Az. Time Alt. Az.
25 May 6.8 01:25:19 10° N 01:30:27 26° ENE 01:35:33 10° ESE visible
25 May 7.8 18:30:03 10° W 18:33:08 14° NW 18:36:14 10° NNW visible
26 May 5.8 01:48:03 10° N 01:53:59 44° ENE 01:59:56 10° SE visible
27 May 7.4 00:26:42 10° NNE 00:29:51 14° NE 00:32:59 10° E visible
27 May 4.7 02:11:05 10° NNW 02:17:20 78° ENE 02:23:36 10° SSE visible
28 May 6.8 00:48:43 10° N 00:53:39 24° ENE 00:58:35 10° ESE visible
29 May 5.8 01:11:22 10° N 01:17:14 41° ENE 01:23:05 10° SE visible
29 May 7.3 23:50:18 10° NNE 23:53:00 13° NE 23:55:44 10° ENE visible
30 May 4.8 01:34:21 10° NNW 01:40:36 72° ENE 01:46:52 10° SSE visible
31 May 6.8 00:12:06 10° N 00:16:51 22° NE 00:21:36 10° ESE visible
31 May 4.5 01:57:36 10° NNW 02:03:47 65° WSW 02:09:59 10° S visible
01 Jun 5.9 00:34:42 10° N 00:40:28 37° ENE 00:46:14 10° SE visible
01 Jun 5.1 02:21:14 10° NW 02:26:48 35° W 02:32:23 10° SSW visible
01 Jun 7.2 23:13:58 10° NNE 23:16:10 12° NE 23:18:22 10° ENE visible
02 Jun 4.8 00:57:38 10° NNW 01:03:52 66° ENE 01:10:07 10° SSE visible
02 Jun 6.8 23:35:31 10° N 23:40:03 20° NE 23:44:36 10° ESE visible
03 Jun 4.4 01:20:52 10° NNW 01:27:04 71° WSW 01:33:19 10° S visible
